Location: Aiyede
(8.4833°N, 4.4500°E)
Time: 14:03:17
(UTC+00:00)

Envisat - Pass Details

Date: 30 November 2020
Orbit: 764 x 766 km, 98.1° (Epoch: 18 January)

Event Time Altitude Azimuth Distance (km) Brightness Sun altitude
Rises 04:26:38 0° 36° (NE) 3,219 6.4 -18.0°
Reaches altitude 10° 04:29:26 10° 51° (NE) 2,294 5.9 -17.4°
Maximum altitude 04:33:15 22° 101° (E) 1,634 5.7 -16.5°
Drops below altitude 10° 04:37:04 10° 150° (SSE) 2,295 6.2 -15.6°
Sets 04:39:51 0° 165° (SSE) 3,221 6.8 -14.9°
